STARLINK-31931, 59864

Orbit data source: Space-Track

STARLINK-31931, 59864 is a payload satellite owned by SpaceX/Seattle (US) in LEO that was launched on Fri, 24 May 2024 UTC via an FALCON 9 launch vehicle from the Air Force Eastern Test Range (AFETR). Payload-class satellites include a variety of spacecraft equipped with specific instruments for various scientific and technological missions. These include communications satellites like Starlink; space stations such as the ISS; scientific satellites like the Hubble; Earth observation satellites from companies like Planet Labs, Umbra, and HawkEye 360; GPS; miniature CubeSats for education and research; and military/defense satellites.

Loading next visibility...
Identifier
59864, 2024-098G
Orbit
LEO
Country
Flag of USUS
Related business
Manufacturer
SpaceX/Seattle
Mission
Operational Commercial Communications
Bus & Motor
STARLINK V2M, Unknown motor
Mass
730 kg wet, ~700 kg dry
Launch date (UTC)
2024-05-24 (2 years ago)
Launch vehicle
FALCON 9
Launch site
Air Force Eastern Test Range (AFETR)
Object type
Payload
Rocket body
Debris
Shape & HBR
Box + 2 Pan, 17.7 m
Radar Cross Section
33.884 m², Large (>1 m²)

Expand to show TLE details & history
Last TLE update: 2 days ago

TLE from 2 days ago
0 STARLINK-31931
1 59864U 24098G   26171.02786353  .00000787  00000-0  38132-4 0  9999
2 59864  43.0043  60.3717 0001318 272.1788  87.8913 15.27573221117493
Epoch: 2026-06-20T00:40Z
TLE epoch observation values (Epoch: 2026-06-20T00:40:07.408Z)
Latitude
-0.00003°
Longitude
142.09243°
Altitude
482.812 km
Speed
7.626 km/s
True Right ascension
04h 01m 29s
True Declination
0° 00' 00"
Sunlit
Object was in daylight at epoch
Visualization orbit readout
Latitude
Unknown
Longitude
Unknown
Altitude
Unknown
Speed
Unknown
Apparent Right ascension
Unknown
Apparent Declination
Unknown
Sunlit
N/A
Visualization observer readout
Local Sidereal Time
21:31:52
Azimuth
Unknown
Elevation
Unknown
Doppler factor
Unknown
Orbital elements
Apogee altitude
485.918 km
Perigee altitude
484.109 km
Semi-major axis
6,863.151 km
Eccentricity
0.00013
Inclination
43.0043°
RAAN
60.3717°
Arg. of periapsis
272.1788°
True anomaly
87.90639°
Mean anomaly
87.8913°
Eccentric anomaly
87.89885°
Mean motion
3.81731 °/min
Orbital period
94.31 mins
BSTAR
0.000038132
Loading maneuver chart data...
Computing Atmospheric mass density...
Loading historical data...
Loading historical data...
Loading historical data...
Loading historical data...
Loading historical data...
Loading historical data...
Loading historical data...

Documentation

Showing up to 5 results
|